{"data":{"norad_id":63083,"intl_designator":"2025-037G","name":"STARLINK-32932","alt_names":[],"object_type":"PAYLOAD","status":"ACTIVE","operator":null,"country":"US","launch_date":"2025-02-23","launch_site_code":"AFWTR","launch_vehicle":null,"mission":null,"orbit_class":"UNKNOWN","rcs_meters":null,"size_class":null,"mass_kg":null,"dimensions":null,"purposes":["comms"],"wikipedia_slug":null,"has_3d_model":false,"image_url":null,"decayed_at":null,"tle_current":{"epoch":"2026-05-25T03:30:56.335104Z","epoch_age_seconds":69313,"freshness":"FRESH","line1":"1 63083U 25037G   26145.14648536  .00003801  00000+0  32616-3 0  9994","line2":"2 63083  70.0004 161.7177 0003792 273.6400  86.4325 14.98326319 69915","mean_motion":14.98326319,"eccentricity":0.0003792,"inclination_deg":70.0004,"raan_deg":161.7177,"arg_perigee_deg":273.64,"mean_anomaly_deg":86.4325,"bstar":0.00032616,"rev_number":6991,"period_min":96.107235235718,"perigee_km":569.43175669581,"apogee_km":574.70279161733,"semimajor_km":6950.2042741566,"source":"CELESTRAK","updated_at":"2026-05-25T13:38:19.877998Z"}}}